Time,TemperatureF,DewpointF,PressureIn,WindDirection,WindDirectionDegrees,WindSpeedMPH,WindSpeedGustMPH,Humidity,HourlyPrecipIn,Conditions,Clouds,dailyrainin,SoftwareType,DateUTC
2013-02-20 00:01:00,26.0,8.0,30.33,NE,54,2.0,9.0,45,0.00,,,0.00,,2013-02-20 06:01:00,
2013-02-20 00:11:00,25.0,7.0,30.33,ENE,78,2.0,10.0,46,0.00,,,0.00,,2013-02-20 06:11:00,
2013-02-20 00:21:00,25.0,7.0,30.33,ENE,78,2.0,10.0,46,0.00,,,0.00,,2013-02-20 06:21:00,
2013-02-20 00:31:00,25.0,8.0,30.33,NE,56,8.0,10.0,47,0.00,,,0.00,,2013-02-20 06:31:00,
2013-02-20 00:42:00,25.0,8.0,30.33,NE,56,8.0,10.0,47,0.00,,,0.00,,2013-02-20 06:42:00,
2013-02-20 00:52:00,24.0,7.0,30.32,ENE,72,2.0,8.0,47,0.00,,,0.00,,2013-02-20 06:52:00,
2013-02-20 01:01:00,24.0,7.0,30.32,ENE,72,2.0,8.0,47,0.00,,,0.00,,2013-02-20 07:01:00,
2013-02-20 01:11:00,24.0,7.0,30.32,ENE,72,2.0,8.0,47,0.00,,,0.00,,2013-02-20 07:11:00,
2013-02-20 01:21:00,24.0,6.0,30.32,South,170,4.0,7.0,46,0.00,,,0.00,,2013-02-20 07:21:00,
2013-02-20 01:31:00,24.0,6.0,30.32,ESE,103,6.0,8.0,46,0.00,,,0.00,,2013-02-20 07:31:00,
2013-02-20 01:42:00,24.0,6.0,30.32,ESE,103,6.0,8.0,46,0.00,,,0.00,,2013-02-20 07:42:00,
2013-02-20 01:52:00,24.0,6.0,30.32,SSE,167,3.0,10.0,46,0.00,,,0.00,,2013-02-20 07:52:00,
2013-02-20 02:05:00,24.0,7.0,30.31,East,88,5.0,10.0,47,0.00,,,0.00,,2013-02-20 08:05:00,
2013-02-20 02:11:00,24.0,7.0,30.31,East,88,5.0,10.0,47,0.00,,,0.00,,2013-02-20 08:11:00,
2013-02-20 02:21:00,24.0,7.0,30.31,East,88,5.0,10.0,47,0.00,,,0.00,,2013-02-20 08:21:00,
2013-02-20 02:31:00,23.0,7.0,30.30,SE,143,3.0,9.0,49,0.00,,,0.00,,2013-02-20 08:31:00,
2013-02-20 02:41:00,23.0,7.0,30.30,SE,143,3.0,9.0,49,0.00,,,0.00,,2013-02-20 08:41:00,
2013-02-20 02:52:00,23.0,7.0,30.30,SE,143,3.0,9.0,49,0.00,,,0.00,,2013-02-20 08:52:00,
2013-02-20 03:01:00,23.0,8.0,30.29,NE,45,8.0,14.0,51,0.00,,,0.00,,2013-02-20 09:01:00,
2013-02-20 03:11:00,23.0,8.0,30.29,NE,45,8.0,14.0,51,0.00,,,0.00,,2013-02-20 09:11:00,
2013-02-20 03:21:00,22.0,7.0,30.28,South,177,1.0,13.0,52,0.00,,,0.00,,2013-02-20 09:21:00,
2013-02-20 03:31:00,22.0,8.0,30.28,South,175,5.0,10.0,53,0.00,,,0.00,,2013-02-20 09:31:00,
2013-02-20 03:42:00,22.0,8.0,30.28,South,175,5.0,10.0,53,0.00,,,0.00,,2013-02-20 09:42:00,
2013-02-20 03:52:00,22.0,7.0,30.28,SSE,150,5.0,11.0,52,0.00,,,0.00,,2013-02-20 09:52:00,
2013-02-20 04:01:00,22.0,7.0,30.29,NNE,12,5.0,8.0,52,0.00,,,0.00,,2013-02-20 10:01:00,
2013-02-20 04:12:00,22.0,7.0,30.29,NNE,12,5.0,8.0,52,0.00,,,0.00,,2013-02-20 10:12:00,
2013-02-20 04:22:00,23.0,8.0,30.29,ESE,110,3.0,8.0,52,0.00,,,0.00,,2013-02-20 10:22:00,
2013-02-20 04:31:00,23.0,8.0,30.29,ESE,115,2.0,11.0,51,0.00,,,0.00,,2013-02-20 10:31:00,
2013-02-20 04:41:00,23.0,8.0,30.29,ESE,115,2.0,11.0,51,0.00,,,0.00,,2013-02-20 10:41:00,
2013-02-20 04:52:00,23.0,7.0,30.29,ENE,70,3.0,9.0,50,0.00,,,0.00,,2013-02-20 10:52:00,
2013-02-20 05:02:00,23.0,7.0,30.29,East,101,3.0,9.0,50,0.00,,,0.00,,2013-02-20 11:02:00,
2013-02-20 05:11:00,22.0,6.0,30.27,ESE,110,5.0,10.0,49,0.00,,,0.00,,2013-02-20 11:11:00,
2013-02-20 05:21:00,22.0,6.0,30.27,ESE,110,5.0,10.0,49,0.00,,,0.00,,2013-02-20 11:21:00,
2013-02-20 05:32:00,22.0,6.0,30.27,ESE,110,5.0,5.0,49,0.00,,,0.00,,2013-02-20 11:32:00,
2013-02-20 05:41:00,22.0,6.0,30.27,ESE,110,5.0,5.0,49,0.00,,,0.00,,2013-02-20 11:41:00,
2013-02-20 05:52:00,22.0,6.0,30.27,ESE,110,5.0,5.0,49,0.00,,,0.00,,2013-02-20 11:52:00,
2013-02-20 06:01:00,22.0,6.0,30.27,ESE,110,5.0,5.0,49,0.00,,,0.00,,2013-02-20 12:01:00,
2013-02-20 06:12:00,22.0,6.0,30.27,ESE,110,5.0,5.0,49,0.00,,,0.00,,2013-02-20 12:12:00,
2013-02-20 06:21:00,22.0,6.0,30.27,ESE,110,5.0,5.0,49,0.00,,,0.00,,2013-02-20 12:21:00,
2013-02-20 06:32:00,22.0,6.0,30.27,ESE,110,5.0,5.0,49,0.00,,,0.00,,2013-02-20 12:32:00,
2013-02-20 06:42:00,22.0,6.0,30.27,ESE,110,5.0,5.0,49,0.00,,,0.00,,2013-02-20 12:42:00,
2013-02-20 06:53:00,22.0,6.0,30.27,ESE,110,5.0,5.0,49,0.00,,,0.00,,2013-02-20 12:53:00,
2013-02-20 07:01:00,22.0,6.0,30.28,ESE,110,5.0,5.0,49,0.00,,,0.00,,2013-02-20 13:01:00,
2013-02-20 07:11:00,22.0,6.0,30.28,ESE,110,5.0,5.0,49,0.00,,,0.00,,2013-02-20 13:11:00,
2013-02-20 07:22:00,22.0,6.0,30.26,ESE,110,5.0,5.0,49,0.00,,,0.00,,2013-02-20 13:22:00,
2013-02-20 07:31:00,22.0,6.0,30.28,ESE,110,5.0,5.0,49,0.00,,,0.00,,2013-02-20 13:31:00,
2013-02-20 07:42:00,22.0,6.0,30.28,ESE,110,5.0,5.0,49,0.00,,,0.00,,2013-02-20 13:42:00,
2013-02-20 07:52:00,22.0,6.0,30.30,ESE,110,5.0,5.0,49,0.00,,,0.00,,2013-02-20 13:52:00,
2013-02-20 08:01:00,22.0,6.0,30.31,ESE,110,5.0,5.0,49,0.00,,,0.00,,2013-02-20 14:01:00,
2013-02-20 08:11:00,22.0,6.0,30.31,ESE,110,5.0,5.0,49,0.00,,,0.00,,2013-02-20 14:11:00,
2013-02-20 08:21:00,22.0,6.0,30.30,ESE,110,5.0,5.0,49,0.00,,,0.00,,2013-02-20 14:21:00,
2013-02-20 08:32:00,22.0,6.0,30.28,ESE,110,5.0,5.0,49,0.00,,,0.00,,2013-02-20 14:32:00,
2013-02-20 08:42:00,22.0,6.0,30.28,ESE,110,5.0,5.0,49,0.00,,,0.00,,2013-02-20 14:42:00,
2013-02-20 08:52:00,24.0,7.0,30.28,East,83,2.0,13.0,47,0.00,,,0.00,,2013-02-20 14:52:00,
2013-02-20 09:01:00,24.0,7.0,30.28,ESE,121,3.0,14.0,48,0.00,,,0.00,,2013-02-20 15:01:00,
2013-02-20 09:11:00,24.0,7.0,30.29,ESE,109,4.0,10.0,48,0.00,,,0.00,,2013-02-20 15:11:00,
2013-02-20 09:22:00,24.0,7.0,30.29,ESE,109,4.0,10.0,48,0.00,,,0.00,,2013-02-20 15:22:00,
2013-02-20 09:32:00,24.0,7.0,30.30,South,184,2.0,13.0,47,0.00,,,0.00,,2013-02-20 15:32:00,
2013-02-20 09:42:00,24.0,9.0,30.31,ESE,118,2.0,11.0,51,0.00,,,0.00,,2013-02-20 15:42:00,
2013-02-20 09:52:00,24.0,9.0,30.31,ESE,118,2.0,11.0,51,0.00,,,0.00,,2013-02-20 15:52:00,
2013-02-20 10:01:00,23.0,13.0,30.30,East,89,7.0,14.0,66,0.00,,,0.00,,2013-02-20 16:01:00,
2013-02-20 10:11:00,22.0,15.0,30.29,ESE,103,5.0,12.0,75,0.00,,,0.00,,2013-02-20 16:11:00,
2013-02-20 10:21:00,22.0,15.0,30.29,ESE,103,5.0,12.0,75,0.00,,,0.00,,2013-02-20 16:21:00,
2013-02-20 10:32:00,22.0,17.0,30.29,East,79,4.0,11.0,81,0.00,,,0.00,,2013-02-20 16:32:00,
2013-02-20 10:41:00,22.0,17.0,30.29,East,79,4.0,11.0,81,0.00,,,0.00,,2013-02-20 16:41:00,
2013-02-20 10:52:00,22.0,18.0,30.29,SE,125,4.0,13.0,84,0.00,,,0.00,,2013-02-20 16:52:00,
2013-02-20 11:01:00,22.0,18.0,30.29,SE,125,4.0,13.0,84,0.00,,,0.00,,2013-02-20 17:01:00,
2013-02-20 11:11:00,22.0,18.0,30.26,SE,133,2.0,9.0,86,0.00,,,0.00,,2013-02-20 17:11:00,
2013-02-20 11:21:00,22.0,18.0,30.26,SE,133,2.0,9.0,86,0.00,,,0.00,,2013-02-20 17:21:00,
2013-02-20 11:32:00,22.0,19.0,30.25,East,97,6.0,10.0,87,0.00,,,0.00,,2013-02-20 17:32:00,
2013-02-20 11:42:00,22.0,19.0,30.25,East,97,6.0,10.0,87,0.00,,,0.00,,2013-02-20 17:42:00,
2013-02-20 11:52:00,23.0,20.0,30.24,ESE,122,6.0,12.0,87,0.00,,,0.00,,2013-02-20 17:52:00,
2013-02-20 12:02:00,23.0,20.0,30.24,ENE,78,5.0,11.0,87,0.00,,,0.00,,2013-02-20 18:02:00,
2013-02-20 12:11:00,23.0,20.0,30.24,ENE,78,5.0,11.0,87,0.00,,,0.00,,2013-02-20 18:11:00,
2013-02-20 12:21:00,23.0,20.0,30.24,ENE,68,4.0,11.0,87,0.00,,,0.00,,2013-02-20 18:21:00,
2013-02-20 12:32:00,23.0,20.0,30.22,SSE,158,4.0,13.0,87,0.00,,,0.00,,2013-02-20 18:32:00,
2013-02-20 12:42:00,23.0,20.0,30.22,SSE,158,4.0,13.0,87,0.00,,,0.00,,2013-02-20 18:42:00,
2013-02-20 12:52:00,24.0,21.0,30.22,East,84,9.0,12.0,87,0.00,,,0.00,,2013-02-20 18:52:00,
2013-02-20 13:01:00,24.0,21.0,30.21,SE,135,3.0,12.0,87,0.00,,,0.00,,2013-02-20 19:01:00,
2013-02-20 13:11:00,24.0,21.0,30.21,SE,135,3.0,12.0,87,0.00,,,0.00,,2013-02-20 19:11:00,
2013-02-20 13:21:00,25.0,22.0,30.21,SE,132,4.0,14.0,87,0.00,,,0.00,,2013-02-20 19:21:00,
2013-02-20 13:31:00,25.0,22.0,30.20,ENE,62,4.0,12.0,87,0.00,,,0.00,,2013-02-20 19:31:00,
2013-02-20 13:41:00,25.0,22.0,30.20,ENE,62,4.0,12.0,87,0.00,,,0.00,,2013-02-20 19:41:00,
2013-02-20 13:52:00,25.0,22.0,30.19,East,95,2.0,13.0,88,0.00,,,0.00,,2013-02-20 19:52:00,
2013-02-20 14:01:00,26.0,23.0,30.19,East,89,5.0,9.0,88,0.00,,,0.00,,2013-02-20 20:01:00,
2013-02-20 14:11:00,27.0,24.0,30.18,ENE,70,9.0,11.0,88,0.00,,,0.00,,2013-02-20 20:11:00,
2013-02-20 14:21:00,27.0,24.0,30.18,ENE,70,9.0,11.0,88,0.00,,,0.00,,2013-02-20 20:21:00,
2013-02-20 14:31:00,27.0,24.0,30.16,ESE,116,8.0,14.0,88,0.00,,,0.00,,2013-02-20 20:31:00,
2013-02-20 14:41:00,27.0,24.0,30.16,SSE,150,5.0,12.0,88,0.00,,,0.00,,2013-02-20 20:41:00,
2013-02-20 14:51:00,27.0,24.0,30.16,SSE,150,5.0,12.0,88,0.00,,,0.00,,2013-02-20 20:51:00,
2013-02-20 15:01:00,28.0,24.0,30.15,ENE,68,4.0,12.0,86,0.00,,,0.00,,2013-02-20 21:01:00,
2013-02-20 15:11:00,28.0,24.0,30.14,ESE,113,7.0,11.0,83,0.00,,,0.00,,2013-02-20 21:11:00,
2013-02-20 15:21:00,28.0,24.0,30.14,ESE,113,7.0,11.0,83,0.00,,,0.00,,2013-02-20 21:21:00,
2013-02-20 15:31:00,29.0,24.0,30.14,East,82,9.0,12.0,80,0.00,,,0.00,,2013-02-20 21:31:00,
2013-02-20 15:41:00,29.0,24.0,30.14,East,82,9.0,12.0,80,0.00,,,0.00,,2013-02-20 21:41:00,
2013-02-20 15:52:00,29.0,23.0,30.13,ENE,68,4.0,11.0,79,0.00,,,0.00,,2013-02-20 21:52:00,
2013-02-20 16:01:00,29.0,23.0,30.13,East,86,5.0,11.0,78,0.00,,,0.00,,2013-02-20 22:01:00,
2013-02-20 16:11:00,29.0,23.0,30.12,ENE,65,3.0,12.0,79,0.00,,,0.00,,2013-02-20 22:11:00,
2013-02-20 16:21:00,29.0,23.0,30.12,ENE,65,3.0,12.0,79,0.00,,,0.00,,2013-02-20 22:21:00,
2013-02-20 16:31:00,29.0,24.0,30.12,East,101,10.0,11.0,82,0.00,,,0.00,,2013-02-20 22:31:00,
2013-02-20 16:42:00,29.0,24.0,30.12,East,101,10.0,11.0,82,0.00,,,0.00,,2013-02-20 22:42:00,
2013-02-20 16:52:00,28.0,24.0,30.12,East,79,7.0,11.0,83,0.00,,,0.00,,2013-02-20 22:52:00,
2013-02-20 17:01:00,28.0,24.0,30.12,North,353,6.0,16.0,84,0.00,,,0.00,,2013-02-20 23:01:00,
2013-02-20 17:12:00,28.0,24.0,30.11,East,82,4.0,14.0,84,0.00,,,0.00,,2013-02-20 23:12:00,
2013-02-20 17:22:00,28.0,24.0,30.11,East,82,4.0,14.0,84,0.00,,,0.00,,2013-02-20 23:22:00,
2013-02-20 17:31:00,28.0,24.0,30.11,East,87,3.0,15.0,84,0.00,,,0.00,,2013-02-20 23:31:00,
2013-02-20 17:42:00,28.0,24.0,30.11,East,87,3.0,15.0,84,0.00,,,0.00,,2013-02-20 23:42:00,
2013-02-20 17:52:00,28.0,24.0,30.10,East,97,2.0,14.0,84,0.00,,,0.00,,2013-02-20 23:52:00,
2013-02-20 18:02:00,27.0,23.0,30.09,ESE,103,1.0,13.0,84,0.00,,,0.00,,2013-02-21 00:02:00,
2013-02-20 18:11:00,27.0,23.0,30.09,ESE,103,1.0,13.0,84,0.00,,,0.00,,2013-02-21 00:11:00,
2013-02-20 18:21:00,27.0,23.0,30.09,East,86,5.0,15.0,84,0.00,,,0.00,,2013-02-21 00:21:00,
2013-02-20 18:32:00,27.0,23.0,30.09,ESE,122,5.0,12.0,84,0.00,,,0.00,,2013-02-21 00:32:00,
2013-02-20 18:42:00,27.0,23.0,30.09,ESE,122,5.0,12.0,84,0.00,,,0.00,,2013-02-21 00:42:00,
2013-02-20 18:52:00,27.0,23.0,30.09,East,80,5.0,14.0,84,0.00,,,0.00,,2013-02-21 00:52:00,
2013-02-20 19:01:00,26.0,22.0,30.09,ENE,65,5.0,14.0,83,0.00,,,0.00,,2013-02-21 01:01:00,
2013-02-20 19:11:00,26.0,22.0,30.09,ENE,65,5.0,14.0,83,0.00,,,0.00,,2013-02-21 01:11:00,
2013-02-20 19:21:00,26.0,21.0,30.09,ENE,72,7.0,12.0,82,0.00,,,0.00,,2013-02-21 01:21:00,
2013-02-20 19:32:00,26.0,21.0,30.10,ENE,72,3.0,11.0,81,0.00,,,0.00,,2013-02-21 01:32:00,
2013-02-20 19:41:00,26.0,21.0,30.10,ENE,72,3.0,11.0,81,0.00,,,0.00,,2013-02-21 01:41:00,
2013-02-20 19:52:00,26.0,21.0,30.11,ESE,105,2.0,7.0,80,0.00,,,0.00,,2013-02-21 01:52:00,
2013-02-20 20:01:00,26.0,20.0,30.11,ENE,63,4.0,9.0,79,0.00,,,0.00,,2013-02-21 02:01:00,
2013-02-20 20:11:00,26.0,20.0,30.11,ENE,63,4.0,9.0,79,0.00,,,0.00,,2013-02-21 02:11:00,
2013-02-20 20:21:00,26.0,20.0,30.13,East,79,5.0,8.0,79,0.00,,,0.00,,2013-02-21 02:21:00,
2013-02-20 20:32:00,27.0,20.0,30.13,SE,124,6.0,7.0,75,0.00,,,0.00,,2013-02-21 02:32:00,
2013-02-20 20:42:00,27.0,20.0,30.13,SE,124,6.0,7.0,75,0.00,,,0.00,,2013-02-21 02:42:00,
2013-02-20 20:52:00,27.0,20.0,30.13,SE,124,6.0,7.0,75,0.00,,,0.00,,2013-02-21 02:52:00,
2013-02-20 21:01:00,27.0,18.0,30.14,ENE,63,7.0,9.0,69,0.00,,,0.00,,2013-02-21 03:01:00,
2013-02-20 21:12:00,27.0,18.0,30.14,ENE,63,7.0,9.0,69,0.00,,,0.00,,2013-02-21 03:12:00,
2013-02-20 21:21:00,25.0,18.0,30.14,ENE,62,4.0,10.0,75,0.00,,,0.00,,2013-02-21 03:21:00,
2013-02-20 21:32:00,25.0,18.0,30.14,ENE,62,4.0,10.0,75,0.00,,,0.00,,2013-02-21 03:32:00,
2013-02-20 21:41:00,25.0,18.0,30.14,ENE,62,4.0,10.0,75,0.00,,,0.00,,2013-02-21 03:41:00,
2013-02-20 21:52:00,25.0,18.0,30.15,SE,146,4.0,9.0,75,0.00,,,0.00,,2013-02-21 03:52:00,
2013-02-20 22:01:00,24.0,20.0,30.14,NE,54,3.0,11.0,85,0.00,,,0.00,,2013-02-21 04:01:00,
2013-02-20 22:11:00,24.0,20.0,30.14,NE,54,3.0,11.0,85,0.00,,,0.00,,2013-02-21 04:11:00,
2013-02-20 22:21:00,23.0,20.0,30.14,SSW,198,2.0,10.0,88,0.00,,,0.00,,2013-02-21 04:21:00,
2013-02-20 22:32:00,23.0,20.0,30.14,ESE,121,6.0,9.0,89,0.00,,,0.00,,2013-02-21 04:32:00,
2013-02-20 22:42:00,23.0,20.0,30.14,ESE,121,6.0,9.0,89,0.00,,,0.00,,2013-02-21 04:42:00,
2013-02-20 22:52:00,23.0,20.0,30.12,ENE,62,2.0,13.0,89,0.00,,,0.00,,2013-02-21 04:52:00,
2013-02-20 23:02:00,23.0,20.0,30.12,ENE,62,5.0,12.0,89,0.00,,,0.00,,2013-02-21 05:02:00,
2013-02-20 23:12:00,23.0,20.0,30.12,ENE,62,5.0,12.0,89,0.00,,,0.00,,2013-02-21 05:12:00,
2013-02-20 23:22:00,23.0,20.0,30.12,East,80,6.0,13.0,89,0.00,,,0.00,,2013-02-21 05:22:00,
2013-02-20 23:33:00,23.0,20.0,30.12,NE,54,7.0,12.0,89,0.00,,,0.00,,2013-02-21 05:33:00,
2013-02-20 23:43:00,23.0,20.0,30.12,NE,54,7.0,12.0,89,0.00,,,0.00,,2013-02-21 05:43:00,
2013-02-20 23:59:00,23.0,20.0,30.10,ENE,60,9.0,14.0,89,0.00,,,0.00,,2013-02-21 05:59:00,